Overview Statistics Trail Chart Weather Telemetry Raw packets
 

This is the latest recevied weather packets stored in our database for station/object N5DGC. If no packets are shown the sender has not sent any weather packets the latest 10 day(s).

<< 9 10 11 12 13 14 15 >>
Time Temp. Humidity Pressure Rain* Wind** Luminosity Snow
1788543111 26.67° C 43% 1241.6 hPa 0 mm - 368 W/m² -
1788542808 26.67° C 42% 1241.7 hPa 0 mm - 334 W/m² -
1788542507 26.11° C 43% 1241.6 hPa 0 mm - 531 W/m² -
1788542202 25.56° C 45% 1241.8 hPa 0 mm - 353 W/m² -
1788541897 25° C 46% 1241.6 hPa 0 mm - 415 W/m² -
1788541594 24.44° C 47% 1241.8 hPa 0 mm - 397 W/m² -
1788541289 25° C 46% 1241.8 hPa 0 mm - 252 W/m² -
1788540988 24.44° C 48% 1241.9 hPa 0 mm - 238 W/m² -
1788540687 25° C 46% 1242.1 hPa 0 mm - 299 W/m² -
1788540387 25° C 48% 1241.8 hPa 0 mm - 272 W/m² -
1788540083 25° C 48% 1241.9 hPa 0 mm - 240 W/m² -
1788539779 26.11° C 46% 1242.2 hPa 0 mm - 384 W/m² -
1788539474 25° C 49% 1241.9 hPa 0 mm - 687 W/m² -
1788539174 23.89° C 51% 1241.8 hPa 0 mm - 471 W/m² -
1788538869 23.89° C 51% 1241.8 hPa 0 mm - 246 W/m² -
1788538564 23.89° C 52% 1241.8 hPa 0 mm - 266 W/m² -
1788538259 23.89° C 52% 1241.9 hPa 0 mm - 370 W/m² -
1788537954 23.89° C 50% 1241.8 hPa 0 mm - 244 W/m² -
1788537650 23.89° C 49% 1241.7 hPa 0 mm - 261 W/m² -
1788537350 23.89° C 48% 1241.8 hPa 0 mm - 229 W/m² -
1788537044 23.33° C 51% 1241.8 hPa 0 mm - 315 W/m² -
1788536746 23.33° C 51% 1241.7 hPa 0 mm - 223 W/m² -
1788536433 23.33° C 50% 1241.6 hPa 0 mm - 192 W/m² -
1788536132 23.33° C 51% 1241.4 hPa 0 mm - 175 W/m² -
1788535829 22.78° C 52% 1241.4 hPa 0 mm - 171 W/m² -

* Rain latest hour (hover to see other rain measurements)
** Current wind speed in m/s (hover to see current wind gust speed)